EW8077 Weather Reports


time (UTC)temp
F
wind
direction
speed
knots
gust
knots
rain 1hr
in
rain 24hr
in
rain mn
in
humidity
%
barometer
mb
20260510103522 44 33 1.7 3.5 0.00 0.35 0.01 92 1015.5
20260510102524 45 15 1.7 3.5 0.00 0.35 0.01 92 1015.5
20260510101525 45 326 1.7 2.6 0.00 0.35 0.01 92 1015.4
20260510100521 45 331 1.7 3.5 0.00 0.35 0.01 92 1015.4
20260510095517 45 348 0.9 2.6 0.00 0.35 0.01 91 1015.2
20260510094530 46 90 0.0 1.7 0.00 0.35 0.01 91 1015.0
20260510093531 46 15 1.7 2.6 0.00 0.35 0.01 91 1014.8
20260510092528 46 17 0.9 1.7 0.00 0.35 0.01 91 1014.6
20260510091529 46 337 0.9 1.7 0.00 0.35 0.01 91 1014.5
20260510090530 46 0.0 0.0 0.00 0.35 0.01 91 1014.4
20260510085551 46 337 0.0 2.6 0.00 0.35 0.01 91 1014.1
20260510084532 46 352 0.9 1.7 0.00 0.35 0.01 91 1013.9
20260510083536 46 49 0.0 1.7 0.00 0.35 0.01 91 1013.9
20260510082537 46 343 0.9 1.7 0.00 0.35 0.01 91 1013.7
20260510081518 46 0.0 0.9 0.00 0.35 0.01 91 1013.5
20260510080520 46 0.0 0.0 0.00 0.35 0.01 91 1013.3
20260510075521 47 0.0 0.0 0.00 0.35 0.01 91 1013.2
20260510074516 47 113 0.0 0.9 0.00 0.35 0.01 91 1013.0
20260510073524 48 0.0 0.0 0.00 0.35 0.01 91 1012.8
20260510072546 48 90 0.0 1.7 0.00 0.35 0.01 91 1012.8
20260510071527 48 31 0.9 1.7 0.00 0.35 0.01 91 1012.8
20260510070528 48 19 0.9 1.7 0.00 0.35 0.01 91 1012.8
20260510065530 48 7 0.9 1.7 0.00 0.35 0.01 90 1012.6
20260510064531 48 0.0 0.0 0.00 0.35 0.01 90 1012.6
20260510063548 49 18 0.9 1.7 0.00 0.35 0.01 90 1012.5
20260510062528 49 0.0 0.0 0.00 0.35 0.01 90 1012.5
20260510061529 49 33 0.9 2.6 0.01 0.35 0.01 89 1012.5
20260510060551 49 38 0.9 2.6 0.01 0.35 0.01 89 1012.5
20260510055526 50 3 1.7 2.6 0.01 0.35 0.01 88 1012.4
20260510054523 50 3 0.9 2.6 0.01 0.35 0.01 88 1011.7
20260510053518 51 31 3.5 5.2 0.01 0.35 0.01 88 1011.5
20260510052531 53 340 6.1 9.6 0.01 0.35 0.01 88 1012.1
20260510051533 55 315 3.5 6.1 0.00 0.34 0.00 88 1012.3
20260510050516 56 337 6.1 9.6 0.00 0.34 0.00 88 1011.5
20260510045517 55 266 1.7 2.6 0.00 0.34 0.00 88 1011.0
20260510044539 55 100 0.9 2.6 0.00 0.35 0.00 88 1010.6
20260510043520 55 353 1.7 2.6 0.00 0.35 0.00 87 1009.9
20260510042522 55 0.0 0.0 0.00 0.35 0.00 87 1009.9
20260510041523 56 118 1.7 2.6 0.00 0.36 0.00 87 1009.9
20260510040545 56 177 2.6 5.2 0.00 0.38 0.00 87 1009.9
20260510035526 56 222 2.6 5.2 0.00 0.38 0.38 88 1009.7
20260510034527 56 211 2.6 4.3 0.00 0.39 0.38 89 1010.1
20260510033523 55 210 2.6 4.3 0.00 0.39 0.38 90 1009.9
20260510032518 55 206 1.7 3.5 0.00 0.39 0.38 90 1009.8
20260510031531 55 198 1.7 1.7 0.00 0.39 0.38 90 1009.7
20260510030532 55 191 1.7 3.5 0.00 0.39 0.38 90 1009.7
20260510025601 56 127 2.6 4.3 0.00 0.39 0.38 91 1010.1
20260510024522 55 209 2.6 5.2 0.00 0.39 0.38 92 1010.2
20260510023539 55 183 1.7 3.5 0.00 0.39 0.38 92 1009.5
20260510022520 54 248 0.9 1.7 0.00 0.39 0.38 92 1009.6
20260510021602 54 98 0.9 1.7 0.00 0.39 0.38 92 1009.6
20260510020523 54 209 1.7 2.6 0.00 0.39 0.38 91 1009.5
20260510015519 54 248 0.0 1.7 0.00 0.39 0.38 91 1009.5
20260510014520 54 216 1.7 2.6 0.00 0.39 0.38 91 1009.7
20260510013521 55 242 1.7 2.6 0.00 0.39 0.38 91 1009.3
20260510012522 55 174 1.7 1.7 0.00 0.39 0.38 91 1009.2
20260510011518 55 198 1.7 2.6 0.00 0.39 0.38 91 1009.1
20260510010526 55 204 1.7 3.5 0.00 0.39 0.38 91 1008.9
20260510005527 55 254 1.7 3.5 0.00 0.39 0.38 90 1009.2
20260510004529 55 260 1.7 4.3 0.00 0.39 0.38 90 1009.2
20260510003530 56 229 2.6 4.3 0.00 0.39 0.38 90 1009.2
20260510002531 56 253 1.7 3.5 0.00 0.40 0.38 90 1009.1
20260510001533 56 202 2.6 4.3 0.00 0.42 0.38 90 1009.0
20260510000516 56 255 3.5 7.0 0.02 0.43 0.38 89 1008.9
20260509235518 56 220 2.6 7.0 0.04 0.43 0.38 88 1008.9
20260509234519 56 235 3.5 6.1 0.22 0.44 0.38 87 1008.8
20260509233540 55 198 2.6 5.2 0.34 0.45 0.38 86 1008.8
20260509232521 55 258 2.6 6.1 0.34 0.46 0.38 84 1008.8
20260509231523 55 231 2.6 4.3 0.34 0.47 0.38 81 1008.8
20260509230543 55 356 3.5 5.2 0.32 0.47 0.36 77 1009.3
20260509225526 55 303 5.2 8.7 0.30 0.46 0.34 70 1009.3
20260509224527 58 330 5.2 8.7 0.12 0.29 0.16 59 1008.6
20260509223548 68 327 3.5 6.1 0.00 0.17 0.04 52 1006.6
20260509222530 69 208 3.5 6.1 0.00 0.17 0.04 52 1006.6
20260509221551 69 189 6.1 9.6 0.00 0.17 0.04 52 1006.5
20260509220533 69 211 5.2 9.6 0.00 0.17 0.04 52 1006.4
20260509215516 70 178 5.2 9.6 0.00 0.17 0.04 52 1006.3
20260509214517 71 171 4.3 7.8 0.00 0.17 0.04 52 1006.0
20260509213519 71 158 6.1 9.6 0.00 0.17 0.04 52 1005.9
20260509212520 72 234 5.2 8.7 0.00 0.17 0.04 52 1006.1
20260509211602 72 205 6.1 8.7 0.00 0.17 0.04 52 1006.3
20260509210523 72 155 5.2 8.7 0.00 0.17 0.04 52 1006.4
20260509205538 72 169 5.2 9.6 0.00 0.17 0.04 52 1006.6
20260509204546 71 302 5.2 9.6 0.00 0.17 0.04 51 1006.6
20260509203547 71 260 7.0 13.0 0.00 0.17 0.04 51 1007.0
20260509202528 71 197 7.0 15.6 0.00 0.17 0.04 52 1007.1
20260509201530 72 170 7.0 10.4 0.00 0.17 0.04 52 1007.2
20260509200531 72 211 7.0 11.3 0.00 0.17 0.04 53 1007.3
20260509195533 71 233 3.5 6.1 0.00 0.17 0.04 53 1007.5
20260509194517 72 167 6.1 10.4 0.00 0.17 0.04 53 1007.5
20260509193538 71 165 6.1 13.0 0.00 0.17 0.04 54 1007.8
20260509192519 71 249 5.2 7.8 0.00 0.17 0.04 54 1008.0
20260509191601 71 212 5.2 10.4 0.00 0.17 0.04 54 1008.1
20260509190522 70 176 5.2 7.8 0.00 0.17 0.04 54 1008.2
20260509185523 69 294 5.2 10.4 0.00 0.17 0.04 54 1008.3
20260509184518 70 278 4.3 7.0 0.00 0.17 0.04 54 1008.4
20260509183526 70 237 6.1 9.6 0.00 0.17 0.04 54 1008.4
20260509182548 71 145 6.1 12.2 0.00 0.17 0.04 54 1008.2
20260509181550 71 100 4.3 7.0 0.00 0.17 0.04 55 1008.1
20260509180526 70 220 6.1 9.6 0.00 0.17 0.04 56 1008.2
20260509175526 69 186 5.2 7.8 0.00 0.17 0.04 57 1008.5
20260509174528 70 193 5.2 8.7 0.00 0.17 0.04 57 1008.5
20260509173529 70 194 4.3 7.8 0.00 0.17 0.04 59 1008.4
20260509172530 69 207 4.3 7.8 0.00 0.17 0.04 61 1008.5
20260509171532 68 159 4.3 7.8 0.00 0.17 0.04 62 1008.5
20260509170535 68 182 5.2 7.8 0.00 0.17 0.04 64 1008.6
20260509165517 67 268 4.3 6.1 0.00 0.17 0.04 66 1008.7
20260509164538 67 238 2.6 3.5 0.00 0.17 0.04 67 1008.5
20260509163539 66 122 3.5 4.3 0.00 0.17 0.04 68 1008.9
20260509162521 65 180 3.5 5.2 0.00 0.17 0.04 68 1009.0
20260509161522 67 229 3.5 6.1 0.00 0.17 0.04 71 1009.1
20260509160604 64 247 2.6 4.3 0.00 0.17 0.04 74 1009.4
20260509155525 61 283 2.6 4.3 0.00 0.17 0.04 75 1009.4
20260509154526 62 238 3.5 5.2 0.00 0.17 0.04 75 1009.4
20260509153528 62 128 3.5 6.1 0.00 0.17 0.04 76 1009.4
20260509152529 62 246 4.3 7.0 0.00 0.17 0.04 78 1009.4
20260509151531 61 213 4.3 7.8 0.00 0.17 0.04 79 1009.3
20260509150532 60 246 2.6 5.2 0.00 0.17 0.04 81 1009.3
20260509145535 62 216 3.5 7.0 0.00 0.17 0.04 83 1009.4
20260509144517 60 219 2.6 5.2 0.00 0.17 0.04 86 1009.3
20260509143538 58 113 3.5 6.1 0.00 0.17 0.04 87 1009.2
20260509142540 58 273 3.5 6.1 0.00 0.17 0.04 88 1009.3
20260509141541 58 140 2.6 3.5 0.00 0.17 0.04 89 1009.3
20260509140522 58 254 2.6 4.3 0.00 0.17 0.04 90 1009.3
20260509135604 57 219 2.6 5.2 0.00 0.17 0.04 91 1009.3
20260509134525 57 304 2.6 4.3 0.00 0.17 0.04 92 1009.4
20260509133527 57 106 2.6 6.1 0.00 0.17 0.04 93 1009.4
20260509132528 56 234 2.6 6.1 0.00 0.17 0.04 94 1009.4
20260509131550 55 146 1.7 4.3 0.00 0.17 0.04 95 1009.4
20260509130531 55 225 2.6 4.3 0.00 0.17 0.04 95 1009.5
20260509125553 55 222 1.7 3.5 0.00 0.17 0.04 96 1009.5
20260509124516 54 166 2.6 5.2 0.00 0.17 0.04 96 1009.7
20260509123517 54 224 1.7 3.5 0.00 0.18 0.04 97 1009.7
20260509122538 53 168 1.7 4.3 0.00 0.18 0.04 97 1009.7
20260509121520 53 195 0.9 2.6 0.00 0.18 0.04 97 1009.8
20260509120515 53 243 0.9 3.5 0.00 0.18 0.04 97 1009.9
20260509115522 52 223 2.6 5.2 0.00 0.18 0.04 97 1009.9
20260509114524 52 106 1.7 4.3 0.00 0.18 0.04 97 1009.7
20260509113525 52 190 1.7 3.5 0.00 0.18 0.04 97 1009.7
20260509112526 52 192 1.7 2.6 0.00 0.18 0.04 97 1009.7
20260509111527 52 223 1.7 3.5 0.00 0.18 0.04 97 1009.6
20260509110530 51 229 1.7 3.5 0.00 0.18 0.04 97 1009.5
20260509105530 51 188 1.7 3.5 0.00 0.18 0.04 97 1009.7
20260509104552 51 182 1.7 2.6 0.00 0.18 0.04 97 1009.7